This demonstration page uses our WeatherBlox Daily Observations layout. Learn more.

Left ArrowRight Arrow

40.97296, -117.73568

Hourly Observations for January 26, 2022

Temp ( °F °C ) Dew Point ( °F °C ) Humidity (%) Winds ( mph kmh ) Pressure ( in mb ) Visibility ( mi km ) Precip ( " mm )
12:56 am 00:56 Clear 23 -5 18 -7.8 81 81 SSE 6 9 30.31 1026 10 16 0.00 0.00
1:56 am 01:56 Clear 20 -6.7 15 -9.4 81 81 SE 7 11 30.31 1026 10 16 0.00 0.00
2:56 am 02:56 Clear 21 -6.1 16 -8.9 81 81 SE 6 9 30.30 1026 10 16 0.00 0.00
3:56 am 03:56 Clear 16 -8.9 12 -11.1 84 84 Calm 30.30 1026 10 16 0.00 0.00
4:56 am 04:56 Clear 16 -8.9 11 -11.7 80 80 E 8 13 30.32 1027 10 16 0.00 0.00
5:56 am 05:56 Clear 18 -7.8 14 -10 84 84 SE 7 11 30.33 1027 10 16 0.00 0.00
6:56 am 06:56 Clear 17 -8.3 13 -10.6 84 84 ESE 8 13 30.35 1028 10 16 0.00 0.00
7:56 am 07:56 Sunny 23 -5 16 -8.9 74 74 Calm 30.36 1028 10 16 0.00 0.00
8:56 am 08:56 Sunny 30 -1.1 21 -6.1 69 69 ENE 3 6 30.36 1028 10 16 0.00 0.00
9:56 am 09:56 Sunny 35 1.7 21 -6.1 57 57 ENE 7 11 30.35 1028 10 16 0.00 0.00
10:56 am 10:56 Sunny 38 3.3 20 -6.7 48 48 ENE 6 9 30.33 1027 10 16 0.00 0.00
11:56 am 11:56 Sunny 41 5 19 -7.2 41 41 SSE 6 9 30.30 1026 10 16 0.00 0.00
12:56 pm 12:56 Sunny 43 6.1 20 -6.7 40 40 VRB 3 6 30.28 1025 10 16 0.00 0.00
1:56 pm 13:56 Sunny 44 6.7 18 -7.8 35 35 Calm 30.26 1025 10 16 0.00 0.00
2:56 pm 14:56 Sunny 44 6.7 19 -7.2 37 37 Calm 30.26 1025 10 16 0.00 0.00
3:56 pm 15:56 Sunny 46 7.8 17 -8.3 31 31 Calm 30.28 1026 10 16 0.00 0.00
4:56 pm 16:56 Sunny 41 5 18 -7.8 39 39 N 3 6 30.30 1026 10 16 0.00 0.00
5:56 pm 17:56 Clear 33 0.6 16 -8.9 49 49 NE 3 6 30.35 1028 10 16 0.00 0.00
6:56 pm 18:56 Clear 27 -2.8 18 -7.8 69 69 Calm 30.36 1028 10 16 0.00 0.00
7:56 pm 19:56 Clear 22 -5.6 17 -8.3 82 82 SE 3 6 30.37 1029 10 16 0.00 0.00
8:56 pm 20:56 Clear 22 -5.6 17 -8.3 82 82 Calm 30.39 1029 10 16 0.00 0.00
9:56 pm 21:56 Clear 21 -6.1 16 -8.9 81 81 NW 3 6 30.39 1029 10 16 0.00 0.00
10:56 pm 22:56 Clear 18 -7.8 14 -10 84 84 WSW 5 7 30.41 1030 10 16 0.00 0.00
11:56 pm 23:56 Clear 18 -7.8 13 -10.6 81 81 SE 3 6 30.41 1030 10 16 0.00 0.00

Powered by AerisWeather